TimeCST,TemperatureF,Dew PointF,Humidity,Sea Level PressureIn,VisibilityMPH,Wind Direction,Wind SpeedMPH,Gust SpeedMPH,PrecipitationIn,Events,Conditions,WindDirDegrees,DateUTC
12:15 AM,32.4,25.7,76,30.04,10.0,West,6.9,-,N/A,,Overcast,260,2013-01-17 06:15:00
12:35 AM,32.4,25.7,76,30.06,10.0,West,6.9,-,N/A,,Overcast,260,2013-01-17 06:35:00
12:55 AM,32.2,25.7,77,30.07,10.0,West,5.8,-,N/A,,Overcast,260,2013-01-17 06:55:00
1:15 AM,32.0,25.9,78,30.08,10.0,West,4.6,-,N/A,,Overcast,280,2013-01-17 07:15:00
1:35 AM,32.0,26.2,79,30.09,10.0,West,4.6,-,N/A,,Overcast,280,2013-01-17 07:35:00
1:55 AM,31.8,26.1,79,30.09,10.0,Calm,Calm,-,N/A,,Overcast,0,2013-01-17 07:55:00
2:15 AM,31.1,25.7,80,30.10,10.0,Calm,Calm,-,N/A,,Overcast,0,2013-01-17 08:15:00
2:35 AM,30.6,25.9,83,30.10,10.0,West,3.5,-,N/A,,Overcast,260,2013-01-17 08:35:00
2:55 AM,31.3,26.6,83,30.11,10.0,West,4.6,-,N/A,,Overcast,270,2013-01-17 08:55:00
3:35 AM,31.6,27.0,83,30.12,10.0,WNW,3.5,-,N/A,,Overcast,290,2013-01-17 09:35:00
3:55 AM,32.0,27.3,83,30.13,10.0,WNW,4.6,-,N/A,,Overcast,300,2013-01-17 09:55:00
4:15 AM,32.0,28.2,86,30.14,10.0,NW,5.8,-,N/A,,Overcast,320,2013-01-17 10:15:00
4:35 AM,32.0,28.6,87,30.14,10.0,NW,3.5,-,N/A,,Overcast,310,2013-01-17 10:35:00
4:55 AM,32.0,28.9,88,30.15,10.0,NNW,5.8,-,N/A,,Overcast,330,2013-01-17 10:55:00
5:15 AM,32.0,27.9,85,30.16,10.0,NNW,4.6,-,N/A,,Overcast,330,2013-01-17 11:15:00
5:35 AM,31.8,25.0,76,30.17,10.0,NNW,9.2,-,N/A,,Mostly Cloudy,330,2013-01-17 11:35:00
6:15 AM,29.8,22.6,75,30.19,10.0,NNW,11.5,-,N/A,,Scattered Clouds,330,2013-01-17 12:15:00
6:35 AM,29.5,21.4,72,30.19,10.0,NNW,10.4,-,N/A,,Clear,340,2013-01-17 12:35:00
6:55 AM,29.1,21.0,72,30.20,10.0,NNW,10.4,16.1,N/A,,Clear,330,2013-01-17 12:55:00
7:15 AM,28.4,20.3,72,30.20,10.0,NNW,9.2,-,N/A,,Clear,330,2013-01-17 13:15:00
7:35 AM,27.9,20.1,73,30.21,10.0,NNW,10.4,-,N/A,,Clear,330,2013-01-17 13:35:00
7:55 AM,28.9,20.3,70,30.21,10.0,NNW,11.5,-,N/A,,Clear,330,2013-01-17 13:55:00
8:15 AM,30.0,19.8,66,30.23,10.0,NNW,12.7,18.4,N/A,,Clear,330,2013-01-17 14:15:00
8:35 AM,30.7,19.0,62,30.24,10.0,NNW,12.7,18.4,N/A,,Clear,330,2013-01-17 14:35:00
8:55 AM,31.1,19.8,63,30.25,10.0,NNW,15.0,-,N/A,,Clear,330,2013-01-17 14:55:00
9:15 AM,30.9,19.4,62,30.26,10.0,NNW,19.6,25.3,N/A,,Clear,330,2013-01-17 15:15:00
9:35 AM,30.7,18.0,59,30.26,10.0,NNW,18.4,25.3,N/A,,Clear,340,2013-01-17 15:35:00
9:55 AM,30.9,17.2,57,30.28,10.0,NNW,15.0,23.0,N/A,,Clear,330,2013-01-17 15:55:00
10:15 AM,30.7,16.2,55,30.27,10.0,NNW,17.3,23.0,N/A,,Clear,330,2013-01-17 16:15:00
10:35 AM,30.9,15.8,54,30.27,10.0,NW,16.1,24.2,N/A,,Clear,320,2013-01-17 16:35:00
10:55 AM,30.9,14.9,52,30.26,10.0,NW,16.1,23.0,N/A,,Clear,320,2013-01-17 16:55:00
11:15 AM,31.5,15.1,51,30.26,10.0,North,15.0,19.6,N/A,,Clear,350,2013-01-17 17:15:00
11:35 AM,30.7,14.5,51,30.26,10.0,NNW,17.3,23.0,N/A,,Clear,330,2013-01-17 17:35:00
11:55 AM,31.1,15.6,53,30.26,10.0,NNW,19.6,25.3,N/A,,Clear,330,2013-01-17 17:55:00
12:15 PM,30.6,14.7,52,30.26,10.0,NNW,17.3,25.3,N/A,,Clear,340,2013-01-17 18:15:00
12:35 PM,30.0,14.4,52,30.26,10.0,NNW,16.1,27.6,N/A,,Clear,340,2013-01-17 18:35:00
12:55 PM,30.6,15.8,54,30.26,10.0,NW,12.7,25.3,N/A,,Clear,320,2013-01-17 18:55:00
1:15 PM,29.7,14.5,53,30.26,10.0,NNW,18.4,24.2,N/A,,Clear,340,2013-01-17 19:15:00
1:35 PM,29.3,14.5,54,30.26,10.0,NW,17.3,27.6,N/A,,Clear,320,2013-01-17 19:35:00
1:55 PM,29.1,14.4,54,30.26,10.0,NNW,19.6,25.3,N/A,,Clear,340,2013-01-17 19:55:00
2:15 PM,28.9,14.4,55,30.27,10.0,NW,19.6,25.3,N/A,,Clear,320,2013-01-17 20:15:00
2:35 PM,28.4,14.7,57,30.27,10.0,NW,19.6,26.5,N/A,,Clear,320,2013-01-17 20:35:00
2:55 PM,27.7,14.0,57,30.28,10.0,NNW,18.4,24.2,N/A,,Clear,330,2013-01-17 20:55:00
3:15 PM,27.3,13.6,56,30.28,10.0,NNW,20.7,25.3,N/A,,Clear,340,2013-01-17 21:15:00
3:35 PM,26.6,12.9,56,30.29,10.0,NNW,17.3,24.2,N/A,,Clear,330,2013-01-17 21:35:00
3:55 PM,26.1,12.6,57,30.31,10.0,North,18.4,25.3,N/A,,Clear,350,2013-01-17 21:55:00
4:55 PM,23.5,11.7,61,30.32,10.0,NW,12.7,-,N/A,,Scattered Clouds,320,2013-01-17 22:55:00
5:35 PM,23.0,11.1,60,30.33,10.0,NW,5.8,-,N/A,,Mostly Cloudy,320,2013-01-17 23:35:00
7:55 PM,18.7,12.4,76,30.36,10.0,WSW,3.5,-,N/A,,Mostly Cloudy,240,2013-01-18 01:55:00
8:15 PM,20.3,11.7,69,30.36,10.0,West,4.6,-,N/A,,Mostly Cloudy,260,2013-01-18 02:15:00
8:35 PM,21.2,12.2,68,30.36,10.0,West,4.6,-,N/A,,Mostly Cloudy,260,2013-01-18 02:35:00
8:55 PM,21.2,12.2,68,30.37,10.0,West,5.8,-,N/A,,Overcast,270,2013-01-18 02:55:00
9:15 PM,21.0,11.7,67,30.38,10.0,West,5.8,-,N/A,,Overcast,260,2013-01-18 03:15:00
9:35 PM,20.5,11.5,68,30.38,10.0,West,4.6,-,N/A,,Overcast,260,2013-01-18 03:35:00
9:55 PM,19.9,11.3,69,30.38,10.0,WSW,8.1,-,N/A,,Mostly Cloudy,250,2013-01-18 03:55:00
11:15 PM,19.0,10.4,69,30.38,10.0,WSW,5.8,-,N/A,,Overcast,250,2013-01-18 05:15:00
11:35 PM,17.8,9.7,71,30.37,10.0,WSW,5.8,-,N/A,,Overcast,250,2013-01-18 05:35:00
11:55 PM,19.0,10.6,70,30.38,10.0,West,5.8,-,N/A,,Overcast,260,2013-01-18 05:55:00